Lapse_Rate
3.9 3.9 4.2 4.8 4.6 4.9 4.7 4.4 4.4 5.2 5.5 6.0 6.0 6.0 6.1 6.1 6.2 6.1 6.0 6.0 6.0 5.7 5.7 5.7 5.7 5.8 5.6 5.5 5.4 5.5 5.5 5.5 5.6 5.5 5.5 5.6 5.7 5.7
4.2 4.2 4.2 3.7 4.8 5.0 4.4 4.9 4.2 4.6 5.2 5.6 5.8 6.0 6.1 6.1 6.1 6.1 6.0 5.8 5.9 5.8 5.8 5.6 5.6 5.7 5.6 5.5 5.5 5.3 5.3 5.5 5.6 5.5 5.5 5.5 5.6 5.7
4.1 3.6 4.5 4.4 4.3 5.5 4.5 4.4 5.0 4.6 4.9 5.5 5.6 5.8 6.0 6.1 6.0 6.1 6.0 6.0 5.9 5.8 5.9 5.6 5.5 5.5 5.5 5.5 5.6 5.5 5.5 5.4 5.5 5.6 5.5 5.6 5.5 5.5
3.9 4.4 4.9 4.7 4.5 4.2 5.4 4.4 5.3 5.1 5.1 5.5 5.5 5.7 5.9 6.0 6.0 6.1 6.0 5.9 5.9 5.7 5.7 5.8 5.5 5.7 6.1 5.8 5.7 5.7 5.5 5.7 5.8 5.6 5.5 5.4 5.3 5.3
4.4 5.2 5.7 5.5 4.9 4.4 4.6 5.0 5.6 5.6 5.4 5.5 5.6 5.6 5.8 5.9 6.1 6.1 6.0 5.9 5.8 5.7 5.7 5.9 5.9 5.7 5.8 5.8 5.8 5.9 5.7 5.9 6.0 5.7 5.6 5.4 5.2 5.2
4.8 5.4 5.2 5.2 5.0 5.0 5.7 5.9 6.6 6.3 6.0 5.5 5.7 6.1 5.9 6.1 6.2 6.3 6.1 5.9 5.8 5.9 5.9 5.9 5.9 5.6 5.8 6.0 6.0 5.9 5.6 5.7 5.7 5.6 5.5 5.7 5.3 5.0
4.8 5.3 5.1 5.8 5.2 6.0 5.5 5.6 6.2 6.5 6.1 5.8 6.2 6.4 6.3 6.3 6.3 6.1 6.2 6.0 6.1 6.0 5.9 6.0 5.9 5.9 6.0 6.0 6.0 5.9 5.6 5.6 5.4 5.4 5.4 5.2 5.5 5.1
4.9 5.5 5.4 6.0 5.8 6.0 5.8 5.3 6.3 6.4 6.2 6.3 6.5 6.4 6.5 6.4 6.2 6.0 6.0 6.0 6.2 6.0 5.6 5.9 6.0 5.8 6.1 5.8 5.7 5.5 5.4 5.4 5.2 5.0 5.3 4.9 5.0 5.0
5.0 5.6 6.0 6.5 6.1 6.2 6.4 6.7 7.4 6.5 6.4 6.5 6.6 6.5 6.4 6.5 6.2 6.4 6.3 6.4 6.2 6.1 6.1 5.7 5.9 5.9 5.6 5.7 5.3 5.1 5.2 5.3 5.0 5.0 5.0 5.0 4.9 5.0
5.7 5.7 6.2 6.6 6.5 6.9 6.9 7.1 6.6 6.7 6.9 6.9 6.9 6.7 6.6 6.5 6.6 6.5 6.4 6.4 6.1 6.1 6.0 6.0 5.9 5.8 5.3 5.4 5.3 5.1 4.8 4.9 5.0 4.8 4.7 4.8 5.0 5.0
5.6 6.1 7.4 6.9 6.8 6.7 6.9 6.7 6.5 6.6 6.7 6.8 6.6 6.5 6.5 6.7 6.6 6.3 6.1 6.0 5.7 5.8 5.5 5.7 5.6 5.0 5.0 5.1 5.1 4.9 4.8 4.9 4.7 4.7 4.6 4.9 5.0 4.8
5.5 6.4 6.9 6.7 6.4 6.7 7.0 7.1 6.8 6.7 6.7 6.6 6.5 6.8 6.8 6.4 6.1 5.9 5.8 5.5 5.5 5.4 5.3 5.1 5.0 4.8 4.7 4.7 4.8 4.7 4.7 4.8 4.9 5.3 5.5 5.2 4.8 4.6
5.5 5.6 5.9 6.3 6.5 6.7 6.9 7.0 6.9 6.3 5.9 6.0 6.6 6.2 5.8 5.5 5.6 5.6 5.5 5.3 5.5 5.1 5.1 4.8 4.8 4.7 4.6 4.6 4.8 4.8 4.9 4.9 5.1 5.2 5.3 5.2 5.1 4.9
5.7 5.5 5.5 5.6 5.9 6.0 6.2 6.1 5.7 5.6 5.8 5.6 5.8 6.1 6.0 5.6 5.5 5.5 5.5 5.5 5.4 5.1 5.0 4.7 4.7 4.5 4.4 4.6 4.4 4.7 4.6 4.6 4.9 5.3 5.3 5.1 5.1 5.1
5.5 5.6 5.5 5.6 6.0 5.9 6.0 6.1 5.9 5.8 5.9 5.7 5.6 5.8 5.8 5.7 5.5 5.5 5.4 5.2 4.9 4.9 4.6 4.5 4.4 4.2 4.2 4.4 4.5 4.4 4.4 4.8 5.1 5.0 5.1 5.2 5.2 5.1
5.8 5.8 5.6 5.8 5.8 5.8 5.6 5.6 5.8 5.8 5.7 5.7 5.8 5.4 5.5 5.3 5.4 5.3 5.2 5.1 5.1 4.9 4.7 4.5 4.3 4.3 4.2 4.2 4.5 4.8 4.7 5.1 5.1 5.1 5.1 5.2 5.2 5.2
5.8 5.8 6.0 5.8 5.9 5.8 5.9 5.7 5.7 5.8 6.0 5.8 5.6 5.4 5.5 5.7 5.7 5.5 5.3 5.0 4.9 5.0 4.9 4.4 4.5 4.5 4.5 4.4 4.6 4.7 4.8 5.1 5.1 5.0 5.1 5.1 5.2 5.2
5.9 6.0 5.7 5.7 5.8 6.0 6.0 5.9 5.8 5.8 5.9 5.5 5.4 5.6 5.5 5.2 5.4 5.3 5.0 5.0 5.0 4.9 4.8 4.8 4.8 4.5 4.2 4.3 4.5 4.7 5.1 5.1 4.9 4.8 4.9 5.1 5.3 5.3
6.2 6.1 6.5 6.7 6.8 6.6 6.6 6.5 6.2 6.2 6.1 6.0 5.8 5.7 5.3 5.0 4.8 4.7 4.7 4.7 4.7 4.6 4.6 4.5 4.5 4.5 4.5 4.6 4.4 4.5 4.8 4.6 4.6 4.9 5.2 5.3 5.5 5.6
7.3 7.3 7.1 7.1 7.2 7.0 6.6 6.4 6.3 6.2 6.0 5.9 5.8 5.8 5.4 4.7 5.0 4.8 4.7 4.8 4.8 4.9 4.8 4.5 4.6 4.6 4.7 4.9 5.0 5.1 5.0 5.0 5.1 5.3 5.3 5.4 5.7 5.9
7.2 7.2 7.1 6.9 6.8 6.7 6.6 6.4 6.4 6.2 6.1 5.9 5.7 5.6 5.2 5.2 5.1 5.1 5.1 5.2 5.2 5.3 5.3 5.3 5.3 5.3 5.3 5.3 5.4 5.5 5.5 5.5 5.7 5.8 5.9 6.0 6.2 6.3
7.2 7.0 6.9 6.7 6.6 6.4 6.3 6.3 6.3 6.3 6.1 5.9 5.7 5.6 5.4 5.4 5.5 5.4 5.3 5.4 5.4 5.4 5.4 5.5 5.5 5.6 5.6 5.8 5.9 6.0 6.2 6.4 6.4 6.5 6.6 6.6 6.5 6.7
7.0 6.9 6.7 6.7 6.6 6.5 6.6 6.5 6.4 6.2 6.0 5.8 5.6 5.6 5.6 5.7 5.8 5.8 5.8 5.7 5.6 5.6 5.6 5.7 5.8 5.9 6.1 6.2 6.4 6.7 6.8 6.9 6.9 6.8 6.6 6.5 6.4 6.3
Wind_Speed
14 11 7 8 7 6 5 5 3 3 4 4 3 10 11 13 13 16 14 14 17 17 14 12 6 13 10 8 8 9 6 4 2 2 0 3 4 5
11 14 12 6 7 7 4 5 3 2 2 2 3 3 10 11 13 14 14 14 16 18 17 15 10 14 13 11 9 15 11 7 5 5 5 4 3 3
13 14 14 9 5 3 4 3 4 3 3 2 2 5 4 4 8 12 12 13 12 17 18 18 16 16 16 13 12 17 16 13 10 9 8 8 7 6
13 14 16 9 11 10 7 6 5 5 4 5 3 2 3 6 8 8 10 11 13 14 19 20 19 18 19 16 14 19 18 16 14 12 11 11 10 9
14 14 13 11 13 8 10 8 6 4 4 3 3 2 2 2 1 2 5 8 10 13 16 19 21 21 21 20 19 19 20 19 17 16 14 12 13 12
13 13 14 14 13 11 9 10 8 7 5 4 3 3 2 2 2 3 3 4 4 12 14 13 17 20 22 24 23 22 22 21 19 18 17 14 13 12
12 14 14 13 13 12 8 10 10 8 6 6 4 3 3 3 4 4 4 4 5 7 3 9 12 15 18 24 23 25 24 24 22 21 19 18 14 12
13 12 12 11 12 11 14 13 13 11 9 7 6 6 8 5 4 4 4 3 3 12 6 5 12 7 13 16 22 24 26 25 25 23 21 18 18 15
10 10 9 6 9 11 11 11 10 12 11 10 9 9 7 8 6 5 5 4 3 2 5 3 6 7 13 15 22 26 26 27 26 24 23 22 21 20
12 13 11 11 12 11 10 9 8 8 9 5 8 5 5 6 8 6 6 5 3 3 3 3 1 3 6 12 15 22 25 25 25 25 24 23 22 21
8 7 8 8 10 12 10 10 9 8 12 15 12 7 5 8 13 5 3 3 3 3 3 2 2 1 1 2 12 18 19 22 23 24 24 23 22 20
5 6 9 8 12 15 10 9 8 7 6 5 4 4 8 8 16 9 6 3 2 0 4 4 3 3 2 0 2 8 12 18 19 22 23 22 21 16
6 5 6 12 15 16 10 8 8 7 8 6 5 3 3 4 6 9 11 4 3 3 4 3 2 2 1 1 1 2 6 6 10 15 21 22 22 20
7 5 5 11 11 13 12 10 10 7 4 3 3 3 3 3 3 6 8 8 5 3 12 8 3 3 2 1 1 0 2 5 6 3 9 16 23 24
5 7 8 9 10 7 7 7 8 4 4 3 3 2 2 3 7 5 9 9 7 5 5 9 3 3 2 2 2 2 1 1 7 4 6 7 10 12
11 8 9 11 10 7 5 6 2 3 3 3 3 3 3 2 2 1 2 1 2 1 7 3 4 3 1 1 2 1 2 2 2 4 6 7 10 13
11 7 5 5 6 5 6 5 4 4 4 3 3 3 2 2 2 1 2 1 2 2 1 2 6 4 3 3 1 2 2 1 2 2 1 1 5 10
7 7 6 5 6 5 5 5 5 6 4 4 4 3 3 2 3 2 2 2 2 1 1 1 1 1 2 3 9 1 1 1 2 3 1 2 4 7
8 6 6 5 5 5 5 5 4 4 4 5 5 4 4 3 3 3 2 2 2 1 1 1 1 1 0 1 2 13 3 1 1 1 3 5 5 4
7 7 7 6 6 6 5 5 5 5 5 5 5 4 4 3 3 3 2 2 2 1 1 1 1 2 2 1 1 2 12 3 2 4 2 3 9 14
7 7 6 6 6 6 5 6 6 5 5 5 4 4 3 3 4 3 3 5 4 1 1 1 1 4 4 2 1 2 3 13 13 4 1 3 3 2
6 7 6 6 6 6 5 5 6 6 5 5 5 5 4 4 4 4 3 2 2 1 1 1 1 1 1 2 3 3 4 2 3 9 16 11 2 3
6 6 6 6 6 6 6 5 6 5 5 5 5 4 4 4 4 4 3 4 3 2 2 1 0 0 2 3 6 6 7 9 6 6 6 13 21 24
Wind_Direction
208 213 193 206 176 176 186 189 197 178 187 180 167 200 195 189 198 194 204 209 216 217 226 238 251 186 192 214 215 189 188 188 206 250 185 107 129 132
202 201 199 189 203 169 206 174 196 209 299 126 197 146 188 190 196 194 210 209 216 220 221 234 231 210 201 207 205 181 180 199 222 238 233 216 177 155
198 200 197 182 185 172 158 182 183 182 215 106 116 143 163 171 191 201 219 204 215 226 224 228 231 220 211 211 212 196 191 194 211 221 230 227 222 206
194 201 196 192 183 183 187 196 191 175 192 208 147 140 177 185 182 182 210 210 215 224 224 229 231 227 219 216 216 208 203 205 207 215 228 229 224 214
194 197 207 192 208 188 180 198 194 183 186 188 184 117 121 144 133 181 201 211 226 232 223 228 231 232 224 216 219 214 211 214 214 217 225 234 225 223
200 200 201 202 201 192 189 198 186 187 170 189 189 144 144 155 196 152 206 218 213 224 221 216 229 231 227 223 222 218 217 220 221 222 226 232 228 221
200 204 206 203 187 194 189 198 188 187 179 189 189 169 165 169 193 183 202 185 213 214 208 214 217 216 218 221 218 220 222 222 223 223 224 227 222 213
198 196 202 194 188 183 193 197 190 181 189 187 188 203 205 198 178 180 174 172 227 192 202 225 199 225 220 213 215 216 220 224 223 221 222 215 214 211
190 188 190 194 180 192 200 190 186 190 190 188 193 205 207 202 154 184 185 175 201 156 185 230 177 226 222 221 219 217 218 221 218 217 216 213 210 212
188 189 185 186 188 187 191 194 201 201 207 193 204 202 195 175 180 186 186 191 86 118 179 232 103 218 220 221 222 222 222 220 219 214 213 210 211 212
183 180 180 187 186 179 182 189 197 211 209 210 215 211 194 181 172 115 150 139 194 216 197 170 198 227 282 249 229 228 228 220 217 216 213 212 213 216
185 184 182 186 169 173 180 172 190 201 167 172 200 199 187 176 171 173 152 167 126 351 211 175 143 171 285 238 271 225 233 238 230 219 215 213 213 213
177 182 188 178 172 179 181 181 194 155 177 170 168 168 179 177 183 189 172 162 151 226 184 149 146 159 135 305 332 244 221 228 226 229 220 215 213 213
179 172 178 179 174 179 181 178 153 138 141 157 163 156 167 170 169 175 177 176 172 192 174 172 162 163 155 146 245 33 241 228 231 234 220 218 218 217
157 145 152 163 171 154 157 158 156 155 152 147 173 132 139 127 107 84 83 100 92 91 179 189 142 144 142 165 174 206 160 247 219 220 233 226 209 206
105 98 106 92 90 92 116 102 122 134 145 135 121 101 94 72 78 100 101 98 97 59 49 105 154 131 136 165 136 183 208 214 156 204 215 232 237 230
113 101 96 86 84 82 70 66 65 70 85 83 106 99 88 79 78 71 86 88 96 110 105 44 72 95 86 144 207 209 186 220 172 158 137 247 240 235
86 95 86 86 89 89 87 78 58 68 68 92 94 98 101 89 100 71 69 75 95 95 110 116 93 62 11 256 218 212 219 216 191 181 159 216 261 230
99 94 92 95 91 84 84 80 86 69 78 83 89 91 96 90 112 95 88 87 83 103 90 104 103 80 117 270 301 216 222 196 155 206 204 220 250 260
89 98 94 87 84 86 87 91 85 81 78 80 83 89 96 106 108 106 94 96 101 96 102 108 147 168 202 210 323 284 221 226 204 239 235 227 245 257
88 83 82 84 82 82 77 81 82 80 79 83 80 77 76 93 93 87 97 115 119 106 130 151 162 203 145 141 232 271 276 231 235 246 273 257 250 241
85 85 80 76 75 77 75 75 79 73 73 74 73 71 67 73 86 87 72 75 62 77 85 103 113 116 176 215 262 287 296 273 269 285 247 245 231 257
83 81 77 72 66 67 73 70 72 70 63 68 69 68 67 66 61 64 68 72 69 61 50 4 344 281 305 299 305 299 298 298 300 303 287 270 258 259